Regional Weather Roundup
Issued by NWS

Home | Current Version | Previous Version | Text Only | Print | Product List | Glossary On
Versions: 1 2 3 4 5 6 7 8 9 10 11 12 13 14 15 16 17 18 19 20 21 22 23 24 25 26 27 28 29 30 31 32 33 34 35 36 37 38 39 40 41 42 43 44 45 46 47 48 49 50
000
ASUS42 KKEY 240610
RWRKEY

FLORIDA REGIONAL WEATHER ROUNDUP FOR THE FLORIDA KEYS
NATIONAL WEATHER SERVICE KEY WEST FLORIDA
100 AM EST FRI FEB 24 2017

...SOUTH FLORIDA AND THE KEYS...

CITY           SKY/WX    TMP DP  RH WIND       PRES   REMARKS
FORT MYERS     PTCLDY    69  64  84 N8        29.73S
SW REGIONAL AP PTCLDY    68  63  84 N6        29.73S
NAPLES         CLEAR     70  65  84 N7        29.71F
MIAMI          CLEAR     65  62  90 W6        29.73R
WEST KENDALL   CLEAR     63  61  93 W3        29.73R
HOMESTEAD      CLEAR     62  62 100 SW5       29.72S
MARATHON       PTCLDY    72  67  84 W5        29.73F
BOCA CHICA NAS CLEAR     69  64  84 NW9       29.75S
KEY WEST INTL  CLEAR     71  67  87 NW7       29.75F

...INTERNATIONAL WEATHER...

CITY           SKY/WX    TMP DP  RH WIND       PRES   REMARKS
NASSAU BAHAMAS PTCLDY    72  66  83 S7        29.74F
CANCUN MEXICO  CLEAR     64  63  94 NW3       29.84F
COZUMEL MEXICO PTCLDY    66  63  88 NE6       29.81F

ADJACENT COASTAL WATERS...

STATION/POSITION TIME  SKY/WX   TEMP    WIND        PRES    WAVE
                                AIR SEA DIR/SP/G            HT/PER
                 (UTC)          (F)     (DEG/KT/KT) (MB)    (FT/S)
PULASKI SHOAL LI 0600            72     330/ 10/ 11 1007.8S
SAND KEY         0550            71     330/ 10/ 12 1007.9F
LONG KEY         0500            71 73  310/ 11/ 13 1007.1F
MOLASSES REEF    NOT AVBL
FOWEY ROCKS      0500            68 73  260/ 11/ 13 1006.9F
Buoy 42097       0600                                 N/A     5/ 6

$$



USA.gov is the U.S. government's official web portal to all federal, state and local government web resources and services.